{"data":{"norad_id":65486,"intl_designator":"2025-196A","name":"SHIYAN-29","alt_names":[],"object_type":"PAYLOAD","status":"ACTIVE","operator":null,"country":"PRC","launch_date":"2025-09-05","launch_site_code":"XICLF","launch_vehicle":null,"mission":null,"orbit_class":"UNKNOWN","rcs_meters":null,"size_class":null,"mass_kg":null,"dimensions":null,"purposes":["comms"],"wikipedia_slug":null,"has_3d_model":false,"image_url":null,"decayed_at":null,"tle_current":{"epoch":"2026-09-19T20:18:44.426592Z","epoch_age_seconds":74604,"freshness":"FRESH","line1":"1 65486U 25196A   26262.84634753 -.00000267  00000+0  00000+0 0  9994","line2":"2 65486  28.9214  17.3454 0015671 175.7428 205.1419  1.00286753  3833","mean_motion":1.00286753,"eccentricity":0.0015671,"inclination_deg":28.9214,"raan_deg":17.3454,"arg_perigee_deg":175.7428,"mean_anomaly_deg":205.1419,"bstar":0,"rev_number":383,"period_min":1435.8825636722,"perigee_km":35716.329632732,"apogee_km":35848.469185946,"semimajor_km":42160.536409339,"source":"CELESTRAK","updated_at":"2026-09-20T09:00:35.345847Z"}}}